Starlink 33832

operational
NORAD ID: 63637 Int'l Des: 2025-083 Owner: SPXS Country: US Constellation: starlink
LEOCIRCULAR

About Starlink 33832

Description loading...

Live Position

Loading 3D Globe...

Upcoming Passes

Altitude History

Altitude vs Time

uPlot chart will show altitude changes over time

Two-Line Element Set

1 63637U 25083D 25305.48735197 .00038181 00000-0 13900-2 0 9998
2 63637 43.0046 8.9175 0000803 236.0447 124.0328 15.27575436 30469
Epoch: Nov 1, 2025 • Age: 10 hours

Current Status

Altitude 485.8 km
Velocity 7.63 km/s
Sub-Earth Point 39.20°N, 64.56°E
Launch Date Apr 25, 2025
Age 0.5 years
Type internet

Technical Details

Classification Payload
Mass 575.00 kg
Dry Mass 530.00 kg
Total Mass 575.00 kg
Length 0.30 m
Diameter 4.10 m
Span 29.00 m
Shape Box + pan
Manufacturer SPXS
Bus Type Starlink V2MO
Phase Status In Orbit
Owner/State SPXS/US

Large Constellations

Loading constellations...